Regional Weather Roundup
Issued by NWS Sterling, VA

Home | Current Version | Previous Version | Text Only | Print | Product List | Glossary Off
Versions: 1 2 3 4 5 6 7 8 9 10 11 12 13 14 15 16 17 18 19 20 21 22 23 24 25 26 27 28 29 30 31 32 33 34 35 36 37 38 39 40 41 42 43 44 45 46 47 48 49 50

000
ASUS41 KLWX 191411
RWRLWX

REGIONAL WEATHER ROUNDUP
NATIONAL WEATHER SERVICE BALTIMORE MD/WASHINGTON DC
900 AM EST MON FEB 19 2018

Note: "FAIR" indicates few or no clouds below 12,000 feet
with no significant weather and/or obstructions to visibility.
 TC=TEMPERATURE CELSIUS

 * =Non NWS site. Station does not report precipitation (e.g. rain,
    snow, etc.), thunder, or fog.

DCZ001-MDZ009-015-VAZ040>042-051-053>054-191500-
WASHINGTON METRO

CITY           SKY/WX    TMP DP  RH WIND       PRES   REMARKS
WASHINGTON NAT CLOUDY    42  39  89 S8        30.50R
DULLES         CLOUDY    39  38  96 S7        30.47R WCI  34
ANDREWS AFB    CLOUDY    39  37  91 S6        30.46F
FT BELVOIR     CLOUDY    41  38  90 S6        30.49R
QUANTICO       CLOUDY    41  39  93 SW8       30.50S
COLLEGE PARK*  CLOUDY    40  36  84 CALM      30.49R
LEESBURG*      CLOUDY    37  37 100 S9        30.45F WCI  31
MANASSAS*      CLOUDY    40  37  89 S6        30.48R
GAITHERSBURG*  CLOUDY    39  36  89 S7        30.46R WCI  34

$$

MDZ006>007-011-014-191500-
BALTIMORE METRO

CITY           SKY/WX    TMP DP  RH WIND       PRES   REMARKS
BWI AIRPORT    CLOUDY    38  36  92 SE3       30.47F
MD SCIENCE CTR   N/A     40  37  89 MISG      30.49F
MARTIN STATE   CLOUDY    39  39 100 E5        30.50F
ANNAPOLIS      CLOUDY    42  40  92 SE7       30.48F
FORT MEADE*    CLOUDY    37  36  93 CALM      30.51R

$$

MDZ012-015-019>023-191500-
MARYLAND EASTERN SHORE

CITY           SKY/WX    TMP DP  RH WIND       PRES   REMARKS
OCEAN CITY     PTSUNNY   44  43  96 CALM      30.52R
SALISBURY      PTSUNNY   40  39  97 E6        30.49F
BAY BRIDGE AP* PTSUNNY   43  37  81 S5        30.49F
CAMBRIDGE*     CLOUDY    43  39  87 CALM      30.49F
EASTON*        PTSUNNY   43  37  81 S5        30.52S

$$

MDZ017>025-191500-
SOUTHERN MARYLAND

CITY           SKY/WX    TMP DP  RH WIND       PRES   REMARKS
PATUXENT RIVER CLOUDY    42  41  96 S6        30.48F
ST INIGOES     LGT RAIN  42  31  64 VRB5      30.47F
LEONARDTOWN*   CLOUDY    41  37  87 S3        30.50S

$$

MDZ003>005-191500-
NORTH CENTRAL MARYLAND

CITY           SKY/WX    TMP DP  RH WIND       PRES   REMARKS
FREDERICK*     CLOUDY    41  36  81 S7        30.48F
HAGERSTOWN APT CLOUDY    41  34  76 S13       30.39S WCI  34
WESTMINSTER*   CLOUDY    39  37  93 S7        30.43S WCI  34

$$

MDZ501>502-191500-
WESTERN MARYLAND

CITY           SKY/WX    TMP DP  RH WIND       PRES   REMARKS
OAKLAND*         N/A     41  41 100 S14       30.24R WCI  33
CUMBERLAND*    CLOUDY    37  36  93 NW3       30.38S

$$

VAZ025>031-191500-
SHENANDOAH VALLEY

CITY           SKY/WX    TMP DP  RH WIND       PRES   REMARKS
WINCHESTER*    CLOUDY    39  36  87 S10       30.38F WCI  32
FRONT ROYAL*   PTSUNNY   41  39  93 S3        30.37F
LURAY*         CLOUDY    43  41  93 SW13      30.38S
NEW MARKET*    PTSUNNY   46  40  80 SW9G18    30.37F
STAUNTON*      DRIZZLE   41  38  89 S6        30.42S
WAYNESBORO*    CLOUDY    41  40  95 S3        30.41R

$$

WVZ021-048>050-054>055-191500-
EASTERN WEST VIRGINIA PANHANDLE

CITY           SKY/WX    TMP DP  RH WIND       PRES   REMARKS
MARTINSBURG    CLOUDY    41  36  82 S10       30.37F WCI  35
PETERSBURG*    FAIR      50  41  72 S9        30.30S

$$

VAZ036>039-050-191500-
CENTRAL FOOTHILLS

CITY           SKY/WX    TMP DP  RH WIND       PRES   REMARKS
CHARLOTTESVILL CLOUDY    42  39  89 S7        30.45F
CULPEPER*      CLOUDY    41  37  84 S7        30.47F
ORANGE*        CLOUDY    39  36  87 CALM      30.46F
GORDONSVILLE*  CLOUDY    39  39  98 S7        30.46F WCI  34
WARRENTON*     CLOUDY    41  36  84 S3        30.46S

$$

VAZ055>057-191500-
NORTH AND CENTRAL PIEDMONT

CITY           SKY/WX    TMP DP  RH WIND       PRES   REMARKS
FREDERICKSBRG* CLOUDY    40  40 100 S5        30.48F
STAFFORD*      CLOUDY    40  40 100 S5        30.52S

$$

NCZ024-NYZ072-PAZ021-071-VAZ022-071-191500-
OTHER REGIONAL OBSERVATIONS

CITY           SKY/WX    TMP DP  RH WIND       PRES   REMARKS
NEW YORK CITY  FAIR      44  32  62 VRB7      30.54R
PHILADELPHIA   PTSUNNY   40  34  79 S3        30.51F
PITTSBURGH     LGT RAIN  45  40  82 SE8       30.15F
ROANOKE        CLOUDY    40  39  97 SE5       30.47R
RICHMOND       DRIZZLE   40  39  97 SE3       30.48F FOG
RALEIGH        DRIZZLE   41  41 100 NE5       30.48S FOG

$$

ANZ530>537-191500-
MARINE OBSERVATIONS

STATION/POSITION TIME  TEMP    WIND        PRES
                       AIR SEA DIR/SP/G
                 (UTC) (F)     (DEG/KT/KT) (MB)
THOMAS PT LIGHT  1400   39 38  150/  6/  7   N/A
BALT KEY BRIDGE  1342   38     100/  6/  7 1032.3F
COVE POINT       1342   40     170/ 10/ 11 1032.7F
LEWISETTA        1342   42 43  200/  7/ 10 1032.3F
SOLOMONS ISLAND  1342   41 40  160/  3/  4 1032.0F

$$




USA.gov is the U.S. government's official web portal to all federal, state and local government web resources and services.